User: anonymous   Login
Location: Carri�res
(48.9069°N, 2.1792°E)
Time: 07:56:43
(UTC+00:00)
Language:

Meteor 2-1 Rocket - Orbit

View from above orbital plane
View from above orbital plane
View from above satellite
View from above satellite

Ground track
Ground track

The orbit data is extracted from the following two-line orbital elements,

1 08027U 75064B   21104.50645248  .00000146  00000-0  78984-4 0  9992
2 08027  81.2949 149.8114 0056031 285.0151  74.4821 14.07354874348753
Epoch (UTC): 14 April 2021 12:09:17
Eccentricity: 0.0056031
inclination: 81.2949°
perigee height: 828 km
apogee height: 909 km
right ascension of ascending node: 149.8114°
argument of perigee: 285.0151°
revolutions per day: 14.07354874
mean anomaly at epoch: 74.4821°
orbit number at epoch: 34875

The dashed part of the orbit path shows where the satellite is in the earth's shadow,  

DLR